Weather History for Cape Cod CGAS, MA

Change the Weather History Date:

Thursday, April 3, 2014

  Actual Average Record
Temperature  
Mean Temperature 38 °F -  
Max Temperature 50 °F 47 °F 62 °F (2002)
Min Temperature 26 °F 32 °F 26 °F (2008)
Degree Days  
Heating Degree Days 27    
Moisture  
Dew Point 28 °F    
Average Humidity 69    
Maximum Humidity 100    
Minimum Humidity 30    
Precipitation  
Precipitation 0.00 in - - ()
Sea Level Pressure  
Sea Level Pressure 30.07 in    
Wind  
Wind Speed 4 mph (NE)    
Max Wind Speed 20 mph    
Max Gust Speed 23 mph    
Visibility 9 miles    
Events Fog    
Averages and records for this station are not official NWS values.
T = Trace of Precipitation, MM = Missing Value Source: NWS Daily Summary

Daily Weather History Graph

Daily Weather History Graph

Search for Another Location

Airport:

Trip Planner

Search our weather history database for the weather conditions in past years. The results will help you decide how hot, cold, wet, or windy it might be!

Date:

Astronomy

Apr. 03, 2014 Rise Set
Actual Time 6:21 AM EDT 7:09 PM EDT
Civil Twilight 5:53 AM EDT 7:37 PM EDT
Nautical Twilight 5:20 AM EDT 8:11 PM EDT
Astronomical Twilight 4:45 AM EDT 8:45 PM EDT
Moon 8:45 AM EDT (4/3) 11:29 PM EDT (4/3)
Length of Visible Light 13h 44m
Length of Day
12h 47m
Waxing Crescent, 17% of the Moon is Illuminated
Apr 3
Waxing Crescent
Apr 7
First Quarter
Apr 15
Full
Apr 22
Last Quarter
Apr 29
New

Hourly Weather History & Observations

Time (EDT) Temp. Windchill Dew Point Humidity Pressure Visibility Wind Dir Wind Speed Gust Speed Precip Events Conditions
12:15 AM 32.0 °F - 30.2 °F 93% 30.08 in 10.0 mi Calm Calm - N/A   Clear
12:35 AM 32.0 °F - 30.2 °F 93% 30.08 in 10.0 mi Calm Calm - N/A   Clear
12:55 AM 32.0 °F - 30.2 °F 93% 30.08 in 10.0 mi Calm Calm - N/A   Clear
1:15 AM 32.0 °F 28.7 °F 30.2 °F 93% 30.08 in 10.0 mi SSW 3.5 mph - N/A   Clear
1:35 AM 32.0 °F 27.5 °F 30.2 °F 93% 30.08 in 10.0 mi WSW 4.6 mph - N/A   Clear
1:55 AM 32.0 °F - 32.0 °F 100% 30.07 in 10.0 mi Calm Calm - N/A   Clear
2:15 AM 32.0 °F - 32.0 °F 100% 30.07 in 10.0 mi Calm Calm - N/A   Clear
2:35 AM 32.0 °F - 32.0 °F 100% 30.06 in 4.0 mi Calm Calm - N/A   Partly Cloudy
2:55 AM 30.2 °F - 30.2 °F 100% 30.06 in 7.0 mi Calm Calm - N/A   Clear
3:15 AM 32.0 °F - 32.0 °F 100% 30.05 in 7.0 mi Calm Calm - N/A   Clear
3:35 AM 30.2 °F - 30.2 °F 100% 30.05 in 0.2 mi Calm Calm - N/A Fog Light Freezing Fog
3:55 AM 30.2 °F - 30.2 °F 100% 30.05 in 2.5 mi Calm Calm - N/A   Clear
4:15 AM 30.2 °F 26.7 °F 30.2 °F 100% 30.05 in 0.2 mi WSW 3.5 mph - N/A Fog Light Freezing Fog
4:35 AM 32.0 °F 28.7 °F 30.2 °F 93% 30.05 in 1.0 mi WSW 3.5 mph - N/A   Scattered Clouds
4:55 AM 30.2 °F - 30.2 °F 100% 30.05 in 5.0 mi Calm Calm - N/A   Scattered Clouds
5:15 AM 32.0 °F - 30.2 °F 93% 30.05 in 0.2 mi Calm Calm - N/A Fog Light Freezing Fog
5:35 AM 30.2 °F - 30.2 °F 100% 30.05 in 10.0 mi Calm Calm - N/A   Clear
5:55 AM 26.6 °F - 26.6 °F 100% 30.05 in 0.2 mi Calm Calm - N/A Fog Light Freezing Fog
6:15 AM 28.4 °F - 28.4 °F 100% 30.05 in 0.2 mi Calm Calm - N/A Fog Light Freezing Fog
6:35 AM 26.6 °F - 24.8 °F 93% 30.06 in 0.5 mi Calm Calm - N/A Fog Fog
6:55 AM 26.6 °F - 26.6 °F 100% 30.07 in 10.0 mi Calm Calm - N/A   Clear
7:15 AM 28.4 °F 23.3 °F 28.4 °F 100% 30.08 in 0.5 mi NE 4.6 mph - N/A Fog Light Freezing Fog
7:35 AM 32.0 °F - 32.0 °F 100% 30.07 in 10.0 mi Calm Calm - N/A   Clear
7:55 AM 37.4 °F - 35.6 °F 93% 30.08 in 10.0 mi Calm Calm - N/A   Clear
8:15 AM 39.2 °F 35.0 °F 39.2 °F 100% 30.09 in 10.0 mi West 5.8 mph - N/A   Clear
8:35 AM 41.0 °F 36.4 °F 33.8 °F 76% 30.09 in 10.0 mi NW 6.9 mph - N/A   Clear
8:55 AM 44.6 °F 40.2 °F 30.2 °F 57% 30.08 in 10.0 mi NW 8.1 mph - N/A   Clear
9:15 AM 46.4 °F 42.9 °F 26.6 °F 46% 30.08 in 10.0 mi Variable 6.9 mph 15.0 mph N/A   Clear
9:35 AM 48.2 °F - 26.6 °F 43% 30.08 in 10.0 mi North 10.4 mph 16.1 mph N/A   Clear
9:55 AM 50.0 °F - 24.8 °F 37% 30.08 in 10.0 mi North 9.2 mph - N/A   Clear
10:15 AM 50.0 °F - 23.0 °F 35% 30.07 in 10.0 mi NE 9.2 mph 15.0 mph N/A   Clear
10:35 AM 50.0 °F - 24.8 °F 37% 30.08 in 10.0 mi NNE 15.0 mph - N/A   Clear
10:55 AM 50.0 °F - 24.8 °F 37% 30.08 in 10.0 mi NNE 13.8 mph 21.9 mph N/A   Clear
11:15 AM 50.0 °F - 24.8 °F 37% 30.08 in 10.0 mi NE 19.6 mph - N/A   Clear
11:35 AM 50.0 °F - 24.8 °F 37% 30.07 in 10.0 mi NNE 12.7 mph 23.0 mph N/A   Clear
11:55 AM 48.2 °F - 24.8 °F 40% 30.08 in 10.0 mi NNE 16.1 mph 23.0 mph N/A   Clear
12:15 PM 48.2 °F - 24.8 °F 40% 30.07 in 10.0 mi NNE 11.5 mph 21.9 mph N/A   Clear
12:35 PM 48.2 °F - 26.6 °F 43% 30.07 in 10.0 mi NNE 12.7 mph - N/A   Clear
12:55 PM 48.2 °F - 26.6 °F 43% 30.07 in 10.0 mi NE 19.6 mph - N/A   Clear
1:15 PM 48.2 °F - 24.8 °F 40% 30.06 in 10.0 mi NE 17.3 mph - N/A   Clear
1:35 PM 48.2 °F - 24.8 °F 40% 30.06 in 10.0 mi NNE 11.5 mph 19.6 mph N/A   Clear
1:55 PM 50.0 °F - 26.6 °F 40% 30.06 in 10.0 mi NE 11.5 mph 18.4 mph N/A   Clear
2:15 PM 48.2 °F - 26.6 °F 43% 30.06 in 10.0 mi NE 15.0 mph - N/A   Clear
2:35 PM 50.0 °F - 26.6 °F 40% 30.06 in 10.0 mi ENE 15.0 mph - N/A   Clear
2:55 PM 48.2 °F - 26.6 °F 43% 30.06 in 10.0 mi NE 13.8 mph - N/A   Clear
3:15 PM 48.2 °F - 26.6 °F 43% 30.06 in 10.0 mi NE 11.5 mph 17.3 mph N/A   Clear
3:35 PM 48.2 °F - 24.8 °F 40% 30.05 in 10.0 mi NE 10.4 mph 17.3 mph N/A   Clear
3:55 PM 48.2 °F - 24.8 °F 40% 30.05 in 10.0 mi NE 9.2 mph 16.1 mph N/A   Clear
4:15 PM 50.0 °F - 24.8 °F 37% 30.05 in 10.0 mi ENE 9.2 mph - N/A   Clear
4:35 PM 48.2 °F - 24.8 °F 40% 30.06 in 10.0 mi ENE 9.2 mph - N/A   Clear
4:55 PM 48.2 °F - 24.8 °F 40% 30.06 in 10.0 mi ENE 8.1 mph - N/A   Clear
5:15 PM 48.2 °F - 24.8 °F 40% 30.07 in 10.0 mi East 6.9 mph - N/A   Clear
5:35 PM 46.4 °F 41.9 °F 24.8 °F 43% 30.07 in 10.0 mi ENE 9.2 mph - N/A   Clear
5:55 PM 46.4 °F 41.9 °F 24.8 °F 43% 30.07 in 10.0 mi NE 9.2 mph - N/A   Clear
6:15 PM 44.6 °F 41.4 °F 24.8 °F 46% 30.08 in 10.0 mi ENE 5.8 mph - N/A   Clear
6:35 PM 42.8 °F 39.3 °F 30.2 °F 61% 30.08 in 10.0 mi SE 5.8 mph - N/A   Clear
6:55 PM 41.0 °F 39.0 °F 30.2 °F 65% 30.08 in 10.0 mi ENE 3.5 mph - N/A   Clear
7:15 PM 39.2 °F 35.0 °F 32.0 °F 75% 30.08 in 10.0 mi SE 5.8 mph - N/A   Clear
7:35 PM 37.4 °F 32.8 °F 32.0 °F 81% 30.09 in 10.0 mi SE 5.8 mph - N/A   Partly Cloudy
7:55 PM 37.4 °F 33.8 °F 32.0 °F 81% 30.10 in 10.0 mi ESE 4.6 mph - N/A   Partly Cloudy
8:15 PM 37.4 °F 34.9 °F 32.0 °F 81% 30.10 in 10.0 mi SE 3.5 mph - N/A   Clear
8:35 PM 35.6 °F 32.8 °F 30.2 °F 81% 30.10 in 10.0 mi East 3.5 mph - N/A   Clear
8:55 PM 35.6 °F - 32.0 °F 87% 30.10 in 10.0 mi Calm Calm - N/A   Clear
9:15 PM 35.6 °F 32.8 °F 30.2 °F 81% 30.10 in 10.0 mi East 3.5 mph - N/A   Clear
9:35 PM 35.6 °F - 30.2 °F 81% 30.10 in 10.0 mi Calm Calm - N/A   Clear
9:55 PM 33.8 °F - 30.2 °F 87% 30.10 in 10.0 mi Calm Calm - N/A   Clear
10:15 PM 33.8 °F 29.6 °F 28.4 °F 81% 30.11 in 10.0 mi NE 4.6 mph - N/A   Clear
10:35 PM 33.8 °F 29.6 °F 28.4 °F 81% 30.12 in 10.0 mi NE 4.6 mph - N/A   Partly Cloudy
11:55 PM 33.8 °F 30.8 °F 26.6 °F 75% 30.12 in 10.0 mi NE 3.5 mph - N/A   Mostly Cloudy